TIME,DELAY(SENSOR),PRES,OXYGEN,RAWTEMP,T(OPTODE),TCPHASE,FLUOR,BETA(BETA700),BETA(BETA412),BETA(BETA440),CDOM,C(CSC),ED(ED412.40),ED(ED444.00),ED(ED489.70),ED(ED554.30),LU(LU411.80),LU(LU443.40),LU(LU489.60),LU(LU554.10),COMP,TILTX,TILTY,CHECK
1352950922,5808,861.9099731445312000,44.6106605529785160,661.9235229492188000,4.5646271705627440,54.3358688354492200,53,99,87,81,81,15185,2147754249,2147420260,2148007268,2147873709,2147638683,2147057874,2148258258,2147196352,1972,4,13,56329
1352954518,5807,954.0000000000000000,47.3681907653808600,669.3452758789062000,4.3198199272155760,54.0323410034179700,52,100,85,79,81,15185,2147755456,2147419465,2148008000,2147874048,2147645138,2147056548,2148257782,2147196416,2833,4,13,21857
1352958118,5809,967.8900146484375000,47.6827201843261700,670.6602783203125000,4.2763819694519040,54.0014495849609400,53,99,89,80,80,14566,2147756973,2147419190,2148007936,2147875830,2147640813,2147061696,2148261869,2147194934,3428,4,13,35540
1352961718,5811,994.5800170898438000,48.7351799011230500,673.5831298828125000,4.1797599792480470,53.8899497985839840,53,99,85,80,81,14526,2147757760,2147420269,2148008064,2147873846,2147643922,2147053805,2148260964,2147191789,338,4,13,16474
1352965318,5810,990.9000244140625000,48.8098602294921900,674.1157836914062000,4.1621417999267580,53.8844490051269500,52,101,86,80,80,14524,2147759844,2147423332,2148008292,2147872786,2147643675,2147057179,2148260416,2147192237,1140,4,13,47415
1352968918,5810,1006.0399780273438000,48.7068481445312500,674.0028076171875000,4.1658778190612790,53.9001693725585940,52,98,86,79,81,14529,2147759058,2147418304,2148009197,2147871606,2147640374,2147057993,2148262582,2147193261,489,5,13,62545
1352972518,5811,995.9899902343750000,48.7449989318847660,674.6129150390625000,4.1456952095031740,53.9062805175781250,52,101,90,80,80,14527,2147760685,2147423597,2148008109,2147874651,2147642925,2147056292,2148264374,2147191158,3447,4,13,58404
1352976118,5810,1004.3900146484375000,49.3569793701171900,675.8322753906250000,4.1053409576416020,53.8350906372070300,52,98,88,79,82,14530,2147757229,2147422436,2148007762,2147873051,2147643593,2147057389,2148261037,2147195346,254,4,13,33153
1352979718,5809,1006.7000122070312000,48.7196693420410160,675.0128784179688000,4.1324582099914550,53.9118499755859400,53,97,91,79,79,14524,2147760502,2147420306,2148008685,2147874816,2147643108,2147058843,2148261138,2147195510,3480,4,13,35454
1352983318,5809,1021.7299804687500000,48.4375114440918000,673.5936279296875000,4.1794128417968750,53.9345016479492200,53,98,91,78,82,14526,2147756059,2147421933,2148008777,2147875026,2147642395,2147063872,2148258386,2147192146,3343,4,13,15697
1352986918,5811,1008.0200195312500000,48.0652809143066400,673.9669189453125000,4.1670680046081540,53.9874000549316400,53,99,86,78,81,14527,2147754413,2147418761,2148008173,2147874029,2147640704,2147057225,2148261906,2147195108,3126,4,13,50250
1352990518,5808,1011.0200195312500000,48.1405296325683600,674.7244873046875000,4.1420001983642580,53.9880714416503900,52,102,90,79,81,14523,2147757513,2147419565,2148010752,2147878912,2147639588,2147058651,2148258797,2147192100,268,4,13,36653
1352994118,5808,1011.2700195312500000,49.1908493041992200,675.7888793945312000,4.1067790985107420,53.8551292419433600,52,101,87,79,81,14502,2147756626,2147420717,2148009609,2147874505,2147641472,2147055926,2148258624,2147193316,3347,4,13,29027
1352997718,5805,1013.3400268554688000,48.3388710021972660,674.8834838867188000,4.1367440223693850,53.9649085998535160,52,98,87,79,82,14501,2147760777,2147421540,2148010861,2147875126,2147642505,2147059291,2148258724,2147196809,104,4,13,19916
1353001318,5808,1006.6400146484375000,48.5275001525878900,675.5410156250000000,4.1149830818176270,53.9408607482910160,53,99,85,79,81,14500,2147758336,2147424649,2148007780,2147874249,2147641508,2147059254,2148257444,2147197165,3299,4,13,44987
1353004918,5812,1010.1199951171875000,49.0030288696289060,676.2932128906250000,4.0900840759277340,53.8900108337402340,52,98,88,80,81,14498,2147760109,2147418742,2148006857,2147875885,2147645302,2147057133,2148261933,2147196754,463,4,13,36049
1353008518,5810,1012.7100219726562000,49.0075111389160160,675.8538208007812000,4.1046299934387210,53.8812599182128900,53,101,87,80,80,14500,2147754788,2147421933,2148006509,2147874688,2147640356,2147059565,2148258852,2147196580,151,4,13,45595
1353012118,5811,1017.0100097656250000,48.3753890991210940,675.3170776367188000,4.1223931312561035,53.9604492187500000,52,97,87,79,81,14499,2147760173,2147419200,2148007369,2147875419,2147643236,2147060845,2148261110,2147197266,92,5,13,15542
1353015718,5810,1020.0100097656250000,48.2082481384277340,673.9191284179688000,4.1686477661132810,53.9668807983398440,53,98,87,78,81,14498,2147756406,2147424365,2148007186,2147875465,2147643254,2147055213,2148260827,2147196708,5,5,13,30460
1353019318,5808,1015.5700073242188000,47.8919601440429700,674.4589843750000000,4.1507849693298340,54.0217208862304700,52,98,89,79,81,14501,2147760548,2147423734,2148009499,2147875291,2147641325,2147065590,2148259702,2147193371,622,4,13,933
1353022918,5808,1025.2700195312500000,48.1317291259765600,673.8666992187500000,4.1703820228576660,53.9781990051269500,53,98,87,79,81,14486,2147759661,2147422829,2148010642,2147873426,2147642971,2147063460,2148262070,2147197174,3283,4,13,55037
1353026518,5808,1025.5999755859375000,48.2007293701171900,673.8353881835938000,4.1714148521423340,53.9679412841796900,53,97,87,81,81,14479,2147761481,2147421056,2148008054,2147877586,2147639506,2147061677,2148261760,2147193499,3090,4,13,56748
1353030118,5810,1025.5699462890625000,48.5424690246582000,674.6771850585938000,4.1435661315917970,53.9319000244140600,53,100,85,79,82,14468,2147757147,2147421814,2148005302,2147876315,2147643693,2147061897,2148263789,2147192996,3139,4,13,42985
1353033718,5808,1016.4600219726562000,48.3627510070800800,674.7463989257812000,4.1412768363952640,53.9530601501464840,52,99,87,78,81,14472,2147759753,2147422226,2148006720,2147874294,2147640896,2147058157,2148262994,2147192978,166,4,13,4301
1353037318,5808,1016.7700195312500000,48.4751205444335940,675.5604248046875000,4.1143398284912110,53.9533805847168000,52,98,84,79,82,14468,2147757321,2147420141,2148008265,2147871771,2147643538,2147057782,2148259629,2147195904,217,4,13,3607
1353040918,5808,1018.2700195312500000,48.4528617858886700,676.1621704101562000,4.0944190025329590,53.9642982482910160,52,99,86,79,81,14469,2147759195,2147418642,2148010560,2147874276,2147641462,2147061101,2148265417,2147196873,174,4,13,53629
1353044518,5808,1020.7199707031250000,48.4566802978515600,675.5549926757812000,4.1145191192626950,53.9570007324218750,52,98,87,78,81,14466,2147759067,2147420041,2148009371,2147872073,2147638802,2147060059,2148262665,2147197970,216,4,13,16787
1353048118,5807,1015.2800292968750000,48.3427886962890600,675.8610839843750000,4.1043848991394040,53.9731407165527340,53,99,87,80,80,14468,2147758189,2147422180,2148007808,2147875145,2147641115,2147057161,2148261842,2147195629,3376,4,13,52398
1353051718,5810,1021.5700073242188000,48.5205688476562500,675.0913696289062000,4.1298642158508300,53.9409294128418000,53,99,86,79,81,14467,2147759104,2147421659,2148008201,2147874624,2147642340,2147057984,2148261952,2147194249,3558,4,13,27771
1353055318,5810,1020.3400268554688000,48.0087890625000000,674.5324707031250000,4.1483569145202640,54.0071411132812500,52,100,90,79,81,14467,2147757778,2147421878,2148009728,2147870098,2147644416,2147059419,2148261732,2147194614,303,4,13,63298
1353058918,5808,1021.3499755859375000,47.9399299621582000,674.2626953125000000,4.1572818756103520,54.0096206665039060,54,101,91,78,81,14468,2147757869,2147419401,2148009929,2147871808,2147641792,2147055360,2148262976,2147193728,3390,4,13,61505
1353062518,5810,1016.8099975585938000,47.9451599121093750,675.4633178710938000,4.1175560951232910,54.0215492248535160,51,99,88,79,81,14463,2147757723,2147422290,2148005851,2147873152,2147641883,2147056292,2148263314,2147197440,148,4,13,48599
1353066118,5810,1016.7000122070312000,48.7629585266113300,675.8347167968750000,4.1052608489990230,53.9150810241699200,52,101,86,77,80,14467,2147759314,2147421220,2148010267,2147871478,2147645220,2147060004,2148261430,2147196937,29,5,13,48498
1353069718,5814,1024.4699707031250000,48.8973693847656250,676.3010864257812000,4.0898208618164060,53.8989791870117200,52,97,86,79,81,14468,2147758336,2147420480,2148011154,2147874889,2147645430,2147058112,2148264237,2147198948,3522,4,13,50294
1353073318,5810,1022.1300048828125000,48.6622314453125000,676.4653930664062000,4.0843830108642580,53.9356384277343750,53,99,85,79,81,14466,2147755410,2147422372,2148006281,2147872292,2147642550,2147059730,2148266541,2147196187,530,4,13,34712
1353076918,5807,1023.7500000000000000,49.0030517578125000,676.3209228515625000,4.0891690254211430,53.8892097473144500,52,99,85,80,81,14465,2147757568,2147424694,2148007213,2147871222,2147640630,2147057435,2148256740,2147194185,3210,4,13,59594
1353080518,5809,1017.2299804687500000,49.5046997070312500,677.6818237304688000,4.0441040992736820,53.8324317932128900,53,100,86,79,81,14465,2147755940,2147421622,2148008100,2147873325,2147645147,2147054820,2148259337,2147194221,415,4,13,44970
1353084118,5809,1018.2299804687500000,48.7013511657714840,676.6873779296875000,4.0770339965820310,53.9306983947753900,52,98,87,79,81,14466,2147758738,2147422793,2148009161,2147875026,2147643410,2147057618,2148261705,2147195346,72,5,13,45506
1353087718,5811,1024.1099853515625000,48.6740112304687500,676.6275024414062000,4.0790162086486820,53.9384307861328100,53,99,87,79,81,14465,2147759588,2147421403,2148008585,2147870729,2147639625,2147056384,2148261988,2147195419,71,4,13,8888
1353091318,5808,1018.5499877929688000,48.5434799194335940,677.1702880859375000,4.0610408782958980,53.9604415893554700,53,98,86,80,81,14465,2147757339,2147423296,2148010002,2147873472,2147642066,2147062537,2148258432,2147194550,284,4,13,20842
1353094918,5810,1016.8300170898438000,48.0586700439453100,677.1956176757812000,4.0602068901062010,54.0293502807617200,53,99,90,79,80,14464,2147762002,2147423899,2148008758,2147871798,2147643254,2147054445,2148260662,2147195218,65,5,13,65241
1353095155,5807,1015.6900024414062000,48.2312011718750000,677.1699218750000000,4.0610561370849610,54.0074081420898440,54,98,87,79,82,15169,2147756342,2147422500,2148008603,2147870601,2147640777,2147057728,2148262994,2147198628,3340,4,13,48939
